www.pogodaiklimat.ru

Погода и климат >> Архив погоды >> Россия >> Архангельская область >> Лешуконское


ПОГОДА в Лешуконском

  • Прогноз погоды в Лешуконском
  • Монитор погоды в Лешуконском

АРХИВ ПОГОДЫ в Лешуконском

Время (UTC), дата Ветер
(напр.,м/с)
 
Видим.   Явления Облачность Т
(С)
Тd
(С)
f
(%)
Тe
(С)
Тes
(С)
Комфортность P
(гПа)
Po
(гПа)
Тmin
(С)
Tmax
(С)
R
(мм)
R24
(мм)
S
(см)
18 17.06 С 2 50 км 1/0
[Ci fib]
+10.8 -0.7 45 +10 +10 1007.0 998.4
21 17.06 штиль 0 50 км 4/0
[Ac trans]
+4.1 +1.3 82 +3 +3 1006.8 998.0
00 18.06 штиль 0 50 км 3/0 1000 м
[Ac und]
+4.2 +1.4 82 +3 +3 1007.2 998.4
03 18.06 С 2 50 км 8/0
[Ac trans]
+6.7 +0.6 65 +5 +6 1007.2 998.4 +3.7
06 18.06 С 2 50 км 3/0
[Ci fib]
+9.2 +2.1 61 +8 +16 1006.7 998.1
09 18.06 З 3 50 км 3/1 600 м
[Sc Ci fib]
+12.2 +2.0 50 +11 +20 1006.4 997.9
12 18.06 СЗ 4
{10}
50 км 3/1 600 м
[Sc Ci fib]
+13.4 +1.3 44 +12 +17 1006.7 998.2
15 18.06 С 4 50 км 4/0
[Ci fib]
+12.4 +1.4 47 +11 +13 1007.0 998.5 +14.2
18 18.06 СЗ 4 50 км 6/0
[Ci fib]
+9.4 +0.8 55 +7 +7 1007.5 998.9
21 18.06 СЗ 3 50 км ясно +5.4 +1.1 74 +2 +2 1008.7 999.9
00 19.06 СЗ 2 50 км ясно +3.1 +0.5 83 0 0 1009.6 1000.7
03 19.06 СЗ 3 50 км 8/6 540 м
[Sc Ci fib]
+4.7 +0.3 73 +1 +2 1010.2 1001.3 +2.9
06 19.06 СЗ 2 50 км 10/0
[Ci sp]
+8.4 +0.4 57 +7 +14 1009.5 1000.8
09 19.06 ЮВ 1 50 км 10/0
[Ac trans Ci sp]
+12.6 +2.0 48 +13 +21 1008.0 999.5
12 19.06 ЮВ 2 50 км 10/3 1000 м
[Cb cap Ac trans Ci fib]
+14.2 +3.4 48 +14 +17 1007.4 998.9
15 19.06 ЮВ 3 10 км слаб. ливневой дождь 10/4 600 м
[Cb cap Ac trans Ci fib]
+15.3 +3.5 45 +15 +16 1006.0 997.5 +16.4 0.0
18 19.06 ЮВ 2 50 км {ливн. осадки} 10/4 600 м
[Cb cap Ac trans]
+13.4 +6.8 64 +13 +13 1004.4 995.9
21 19.06 Ю 3 50 км 10/4 600 м
[Cb cap Ac trans]
+11.8 +7.5 75 +10 +10 1002.6 994.1
00 20.06 ЮЗ 4 50 км {ливн. осадки} 10/6 300 м
[Cb cap Ac trans]
+12.3 +11.0 92 +10 +10 1002.7 994.2
03 20.06 З 5
{11}
50 км 10/8 700 м
[Cb cap Ac trans]
+12.2 +7.9 75 +10 +10 1004.3 995.8 +10.8 0.4
06 20.06 СЗ 6
{11}
50 км 10/10 400 м
[Cb cap]
+8.3 +5.7 84 +4 +4 1007.9 999.3 +8.0
09 20.06 СЗ 7
{11}
50 км 9/9 540 м
[Sc diur, vesp]
+7.6 +3.6 76 +3 +3 1011.7 1003.0
12 20.06 СЗ 5
{11}
50 км 10/4 600 м
[Sc Ac trans Ci fib]
+9.6 +1.4 57 +7 +8 1013.5 1004.8
15 20.06 СЗ 4 50 км 9/8 1170 м
[Sc Ac trans]
+10.3 +1.2 53 +8 +8 1014.2 1005.5 +12.4
18 20.06 С 2 50 км 9/9 1050 м
[Sc]
+8.8 +1.2 59 +7 +7 1014.2 1005.5
21 20.06 ЮЗ 1 50 км ясно +3.5 +1.4 86 +2 +2 1015.5 1006.6
00 21.06 Ю 2 50 км 6/0
[Ci fib]
+3.8 +2.0 88 +1 +1 1015.8 1006.9
03 21.06 ЮЗ 4 50 км 10/0
[Ci fib]
+8.9 +3.6 69 +6 +8 1016.0 1007.3 +2.2
06 21.06 ЮЗ 6 50 км 6/0
[Ac trans Ci fib]
+13.6 +1.6 44 +12 +14 1015.9 1007.3
09 21.06 З 6 50 км 10/4 1000 м
[Cb cap Ac trans Ci fib]
+15.8 +3.7 44 +15 +16 1015.9 1007.3
12 21.06 ЮЗ 3 50 км 10/4 1000 м
[Sc diur, vesp Ac trans Ci fib]
+17.5 +2.4 36 +18 +20 1015.2 1006.8
15 21.06 ЮЗ 3 50 км 9/0
[Ac trans]
+15.8 +4.3 46 +15 +17 1014.5 1005.9 +18.2
18 21.06 В 1 10 км слаб. ливневой дождь 10/4 600 м
[Cb cap Ac trans]
+12.9 +11.2 89 +13 +13 1013.1 1004.5
21 21.06 В 2 50 км в посл. час ливневой дождь 10/4 300 м
[Cb cap Ac trans]
+11.0 +10.0 94 +10 +10 1011.1 1002.4
00 22.06 ЮВ 4 50 км {ливн. осадки} 10/10 240 м
[Cb cap]
+10.9 +10.1 95 +8 +8 1007.8 999.2
03 22.06 В 5 10 км слаб. ливневой дождь 10/10 330 м
[Cb cap]
+11.2 +10.4 95 +8 +8 1005.2 996.7 +10.6 11
06 22.06 ЮВ 2 50 км {ливн. осадки} 10/10 210 м
[Cb cap]
+13.3 +11.8 91 +13 +13 1004.5 996.0
09 22.06 З 1 50 км 10/10 270 м
[Cb cap]
+15.0 +12.3 84 +16 +16 1005.6 997.1
12 22.06 СЗ 1 50 км 9/9 420 м
[Sc]
+15.9 +12.7 81 +17 +18 1005.8 997.3
15 22.06 С 1 50 км 9/9 480 м
[Sc]
+16.2 +12.6 79 +17 +17 1005.5 997.2 +16.5 3
18 22.06 СВ 1 50 км 9/9 450 м
[Sc]
+15.6 +12.9 84 +16 +16 1005.2 996.7
21 22.06 штиль 0 50 км 9/9 450 м
[Sc]
+14.6 +13.0 90 +14 +14 1004.1 995.6
00 23.06 В 2 10 км гроза, ливневой дождь 10/8 500 м
[Cb cap Ac trans]
+13.8 +13.1 96 +13 +13 1001.4 992.9
03 23.06 ЮЗ 5
{10}
50 км {гроза, ливн. осадки} 10/8 480 м
[Cb cap Ci fib]
+15.6 +13.8 89 +14 +15 1001.0 992.5 +13.5 4
06 23.06 ЮЗ 9
{15}
50 км {гроза, ливн. осадки} 10/8 1000 м
[Cb cap Ci fib]
+16.4 +9.3 63 +15 +15 1002.3 994.0
09 23.06 ЮЗ 9
{17}
50 км 10/4 600 м
[Cb cap Ci fib]
+16.4 +5.6 49 +15 +15 1005.1 996.6
12 23.06 ЮЗ 6
{17}
50 км {ливн. осадки} 10/4 600 м
[Cb cap Ci fib]
+14.5 +6.7 59 +13 +14 1006.4 997.9
15 23.06 ЮЗ 5
{13}
50 км {ливн. осадки} 10/3 600 м
[Cb cap Ac trans Ci fib]
+13.9 +7.4 65 +12 +13 1007.1 998.6 +18.1 0.3
18 23.06 СЗ 4
{12}
50 км в посл. час ливневой дождь 10/6 360 м
[Cb cap Ac trans]
+10.3 +8.7 90 +8 +8 1008.9 1000.2
21 23.06 СЗ 3 10 км слаб. ливневой дождь 10/10 240 м
[Cb cap]
+6.9 +5.6 91 +4 +4 1010.5 1001.8
00 24.06 С 2 50 км {ливн. осадки} 10/10 360 м
[Cb cap]
+5.5 +4.6 94 +3 +3 1012.6 1003.7
03 24.06 СЗ 3 50 км 10/10 300 м
[Cb cap]
+4.3 +2.0 85 +1 +1 1014.3 1005.4 +3.8 2
06 24.06 СЗ 3 50 км 10/6 630 м
[Sc diur, vesp Ac trans Ci fib]
+6.8 +1.6 69 +4 +6 1015.5 1006.6
09 24.06 СЗ 3 50 км 10/9 870 м
[Sc]
+9.0 +1.2 58 +7 +7 1016.9 1008.2
12 24.06 З 5 50 км 9/9 960 м
[Sc]
+9.4 +1.4 57 +6 +7 1018.2 1009.5
15 24.06 З 4 50 км 9/9 660 м
[Sc]
+8.4 +3.3 70 +5 +6 1019.9 1011.1 +10.4

 

Местоположение метеостанции Лешуконское (Архангельская область, Россия): широта 64.90 долгота 45.77 высота над уровнем моря 71 м.

В архиве по умолчанию представлена погода в Лешуконском за последнюю неделю. Архивные данные за месяц целиком и за предыдущие месяцы, начиная с января 2011 года, Вы можете получить, выбрав интересующий диапазон дат из раскрывающегося списка и нажав кнопку "Ввод!".


*Определитесь, кто Вы:
робот инопланетянин человек

Внимание! Время в таблицах - всемирное. Для получения местного времени необходимо прибавить поправку, которая равна 3 ч.

Смотрите также архив погоды в соседних городах и на ближайших метеорологических станциях:

Погода в Койнасе (Архангельская область, Россия) (90 км)
Погода в Мосеево (Архангельская область, Россия) (99 км)
Погода в Пинеге (Архангельская область, Россия) (113 км)
Погода в Карпогорах (Архангельская область, Россия) (120 км)
Погода в Мезене (Архангельская область, Россия) (130 км)
Погода в Суре (Архангельская область, Россия) (147 км)
Погода в Кепино (Архангельская область, Россия) (192 км)
Погода в Вендинге (Коми, Россия) (192 км)
Погода в Неси (Ненецкий АО, Россия) (196 км)
Погода в Абрамовском маяке (Архангельская область, Россия) (201 км)

Пояснения к столбцам:

Ветер - указаны скорость ветра в м/с - средняя за 10 мин, порывы в срок и между сроками (в фигурных скобках) и направление, откуда дует ветер: С - северный, СВ - северо-восточный, В - восточный, ЮВ - юго-восточный, Ю - южный, ЮЗ - юго-западный, З - западный, СЗ - северо-западный.
Видимость - горизонтальная дальность видимости в метрах или километрах. При видимости от 1 до 10 км при отсутствии осадков обычно наблюдается дымка, при ухудшении видимости до 1 км и менее - туман. В сухую погоду видимость может ухудшаться дымом, пылью или мглою.
Явления - указаны атмосферные явления, наблюдавшиеся в срок или в последний час перед сроком; фигурными скобками обозначены явления, наблюдавшиеся между сроками (за 1-3 часа до срока); квадратными скобками обозначены град или гололедные отложения с указанием их диаметра в мм.
Облачность - указаны через наклонную черту общая и нижняя облачность в баллах и высота нижней границы облаков в метрах; квадратными скобками обозначены формы облаков: Ci - перистые, Cs - перисто-слоистые, Cc - перисто-кучевые, Ac - высококучевые, As - высокослоистые, Sc - слоисто-кучевые, Ns - слоисто-дождевые, Cu - кучевые, Cb - кучево-дождевые. Подробнее классификацию облаков см. в Атласе облаков (PDF).
T - Температура воздуха - температура, измеренная на высоте 2 м над землей.
Td - Температура точки росы - температура, при понижении до которой содержащийся в воздухе водяной пар достигнет насыщения.
f - Относительная влажность воздуха - влажноcть воздуха, измеренная на высоте 2 м над землей.
Te - Эффективная температура - температура, которую ощущает одетый по сезону человек в тени. Характеристика душности погоды. При расчете учитывается влияние влажности воздуха и скорости ветра на теплоощущения человека.
Tes - Эффективная температура на солнце - температура, которую ощущает человек, с поправкой на солнечный нагрев. Характеристика знойности погоды. Зависит от высоты солнца над горизонтом, облачности и скорости ветра. Ночью, в пасмурную погоду, а также при ветре 12 м/с и более поправка равна нулю.
P - Атмосферное давление - приведенное к уровню моря атмосферное давление.
Po - Атмосферное давление - измеренное на уровне метеостанции атмосферное давление.
Tmin - Минимальная температура - минимум температуры воздуха на высоте 2 м над землей.
Tmax - Максимальная температура - максимум температуры воздуха на высоте 2 м над землей.
R - Количество осадков - Количество выпавших осадков за период времени, мм. При наведении курсора мыши на число - период времени, за который выпало указанное количество осадков.
R24 - Количество осадков - Количество выпавших осадков за 24 часа, мм.
S - Снежный покров - Высота снежного покрова, см. При наведении курсора мыши на число - состояние снежного покрова и степень покрытия местности в баллах.